Presure
256 297 341 370 369 127 353 323 321 330 171 149 251 124 192 198 135 131 132 138 137 140 129 138 148 133 141 130 165 140 156 126 124 122 119 150 133 135
181 294 328 196 234 386 377 369 339 330 315 313 142 137 239 238 120 203 136 151 134 130 142 140 139 141 141 131 134 132 159 130 122 144 119 122 132 164
265 305 368 342 349 355 359 134 375 372 353 315 317 323 308 148 251 247 235 122 130 134 136 126 129 142 149 165 132 154 130 167 125 127 138 119 127 135
274 408 352 499 506 525 368 489 441 273 147 339 338 245 305 300 192 319 144 250 164 139 134 140 135 203 137 136 150 148 145 158 162 136 127 125 127 117
254 316 355 481 486 518 460 441 441 173 126 352 142 325 314 307 295 156 152 153 225 227 141 135 134 160 133 143 150 137 150 147 144 152 126 141 158 144
263 292 364 410 456 441 415 404 407 377 260 363 332 335 140 309 306 262 217 300 316 142 148 193 210 164 190 132 130 136 140 152 138 145 126 137 133 152
252 257 175 144 452 434 409 398 384 398 370 360 361 322 340 329 285 310 299 291 257 134 304 189 271 229 169 149 157 143 147 183 153 136 129 183 131 141
247 265 286 348 333 383 415 404 397 374 360 351 345 305 318 336 289 313 317 307 307 151 149 326 333 131 135 133 143 199 144 146 155 146 129 150 135 146
240 248 251 290 339 332 329 410 410 400 387 368 354 338 308 313 321 322 320 321 322 309 149 155 152 134 161 141 296 135 248 234 189 134 143 210 164 160
240 239 251 249 277 325 327 338 143 143 370 395 396 386 372 363 357 351 351 357 363 154 153 158 155 151 297 258 154 188 215 180 137 186 146 153 173 177
238 239 237 246 241 276 288 313 150 148 142 142 371 338 342 357 363 369 364 375 321 150 188 142 162 333 302 354 308 314 154 141 134 227 174 137 157 139
239 239 235 237 235 237 256 267 291 150 298 164 170 305 321 345 325 323 327 333 340 341 346 330 146 122 130 157 157 150 137 166 280 261 145 152 238 236
275 248 238 235 236 227 228 261 258 257 279 207 296 180 321 203 305 306 308 313 338 241 201 159 279 148 143 150 142 146 236 157 238 283 275 227 257 254
306 259 266 236 237 236 235 226 238 249 254 259 287 296 284 238 148 172 281 143 252 179 219 198 198 202 205 201 195 205 148 267 316 318 320 323 313 301
239 318 281 266 229 235 228 233 231 225 228 249 251 256 270 287 288 278 277 255 152 157 149 148 147 149 151 154 264 283 290 294 280 295 294 288 283 280
261 275 290 315 264 272 233 235 230 228 222 223 229 235 248 246 261 262 274 278 272 278 273 276 277 280 283 282 284 278 295 283 281 274 276 272 266 260
147 135 134 192 286 307 264 269 228 229 240 228 225 217 224 237 237 230 248 249 248 254 258 264 266 265 264 263 268 272 267 262 261 258 253 253 250 246
228 237 262 239 155 184 246 263 272 269 227 229 229 226 225 235 231 235 231 219 225 236 238 240 241 242 242 244 243 241 246 243 239 238 237 237 236 236
229 245 232 223 271 231 253 270 287 308 270 266 230 228 231 228 224 219 219 220 227 236 230 228 228 235 234 229 232 233 234 235 227 230 228 226 228 226
241 259 257 203 238 255 263 247 276 163 256 296 277 259 258 232 228 230 226 223 226 221 217 218 215 218 219 215 232 223 222 223 211 211 211 230 214 220
259 255 258 260 250 232 267 246 270 269 237 226 238 288 295 264 260 259 241 227 225 220 221 220 218 214 214 217 220 221 220 213 212 223 225 223 224 226
274 257 255 250 248 273 252 262 253 265 262 254 273 293 280 287 292 292 266 255 258 253 244 237 232 227 223 225 229 224 222 221 220 223 226 229 233 233
265 259 263 255 255 266 252 251 268 275 249 253 263 271 278 298 254 288 273 294 201 174 170 254 229 200 260 255 246 241 242 236 234 233 231 232 233 238
Wind_Speed
69 64 62 69 79 54 92 103 103 103 72 66 126 65 93 98 60 55 56 55 58 57 53 51 54 48 46 46 63 43 53 41 40 44 47 48 47 45
55 69 67 63 60 78 86 91 101 106 105 96 62 61 118 117 59 97 58 61 56 58 58 53 52 51 51 50 51 45 54 41 44 52 49 49 50 54
64 64 53 63 71 78 84 52 92 95 101 102 101 98 89 56 125 125 119 63 60 60 57 58 59 58 60 67 53 54 50 66 47 49 43 49 50 46
68 49 54 53 53 45 44 52 69 75 59 91 97 85 102 98 66 98 57 124 63 61 63 58 62 97 60 58 57 55 53 58 60 49 55 51 52 51
58 60 54 38 29 15 17 28 47 49 48 83 55 94 99 100 100 67 61 55 73 115 63 65 62 65 62 60 59 58 56 55 54 56 54 58 59 58
56 58 54 42 19 4 11 20 30 44 55 70 79 85 55 87 89 84 78 95 89 62 60 94 102 75 85 66 64 59 59 58 57 58 56 58 55 62
53 50 46 48 19 7 11 16 25 35 55 62 66 74 76 80 84 89 94 98 88 63 98 72 91 106 79 63 71 62 66 80 62 61 60 79 59 60
47 52 52 47 40 32 9 11 22 35 50 60 63 64 67 71 73 83 87 89 91 58 57 93 94 61 64 66 62 97 65 66 66 66 62 64 63 67
40 45 40 49 43 36 32 7 17 32 46 53 57 62 65 69 74 76 81 82 85 89 57 59 59 62 65 65 102 64 121 112 89 65 67 102 73 73
39 37 40 36 40 38 34 32 50 47 7 21 37 48 58 65 73 78 82 81 77 57 57 60 60 60 80 66 64 68 94 86 67 86 68 72 82 81
37 36 32 34 28 37 38 23 55 52 49 47 5 6 10 19 24 30 38 38 44 59 58 61 58 68 82 59 69 87 66 66 66 107 75 69 69 68
37 35 34 29 27 25 26 26 31 57 16 48 46 7 6 9 8 10 12 16 21 25 30 41 54 51 58 62 63 64 67 67 95 101 68 73 103 104
30 31 33 32 29 27 23 26 17 15 24 38 6 42 9 34 3 2 1 3 9 40 49 62 39 62 64 64 66 67 71 68 76 85 87 91 96 99
34 29 30 32 29 27 26 26 23 20 16 14 17 7 3 21 60 49 2 62 19 54 36 42 43 47 51 50 52 60 69 62 62 63 62 57 57 57
38 35 32 29 35 32 32 27 28 27 24 17 14 12 16 12 7 7 8 20 69 67 70 70 70 70 71 73 39 42 45 43 47 45 45 49 52 52
39 37 36 35 33 32 36 33 32 30 33 32 27 22 15 15 13 9 7 12 14 16 16 16 17 19 24 32 36 37 35 38 39 41 42 44 48 49
41 38 37 36 35 37 36 35 39 39 31 34 34 35 32 25 24 28 17 17 17 16 17 20 23 26 29 31 33 34 36 39 41 42 46 49 51 53
44 44 45 44 51 44 36 37 42 40 43 42 40 39 38 32 33 30 32 39 36 30 30 30 31 33 35 35 38 39 41 44 48 50 52 55 61 60
51 47 47 41 49 42 45 43 40 38 46 45 49 48 46 44 44 46 45 45 42 39 41 42 43 42 44 48 49 49 50 52 56 57 59 63 68 68
55 57 51 50 47 49 43 45 45 54 44 41 49 51 52 55 54 53 52 52 51 52 54 55 57 58 58 60 57 57 59 61 65 66 68 68 74 77
65 62 58 56 52 52 55 48 49 46 50 50 51 50 53 59 59 60 62 63 63 62 63 63 65 65 67 68 68 67 68 70 70 71 73 76 80 83
65 63 63 59 56 65 57 57 53 54 51 51 52 52 58 57 58 64 68 68 69 71 72 72 73 75 74 75 77 76 75 75 77 79 80 81 82 85
69 67 71 63 60 68 61 58 67 65 55 55 56 58 57 60 59 62 65 60 62 59 58 77 72 67 83 84 83 85 85 82 80 81 83 86 87 89
Wind_Direction
280 286 279 272 264 269 255 252 251 250 263 266 250 255 254 250 258 258 257 258 260 263 260 266 272 263 271 263 267 270 280 270 277 283 291 289 290 291
284 303 291 274 271 262 257 253 250 247 247 248 260 253 250 251 265 252 255 255 255 261 262 263 264 265 267 264 272 270 270 267 276 282 289 292 284 280
308 308 293 285 276 266 259 268 250 247 244 243 245 246 247 258 250 249 249 270 259 260 254 266 264 265 266 260 265 277 270 270 274 273 268 291 289 284
315 326 305 294 292 270 258 242 244 250 261 241 241 249 245 246 252 249 248 249 259 250 256 254 260 258 263 264 271 273 271 276 277 267 271 283 283 295
316 332 325 310 305 274 234 244 242 258 261 239 264 241 244 246 247 257 246 250 246 248 249 254 262 256 262 266 268 270 271 272 270 276 278 277 280 279
321 336 349 344 328 252 238 241 244 244 246 238 237 239 260 243 244 246 250 249 250 250 249 253 250 252 252 264 269 267 268 272 271 270 281 278 282 278
321 327 282 272 354 296 270 239 239 233 230 234 235 237 238 239 245 241 243 246 248 254 249 254 249 249 253 258 255 257 267 261 270 270 279 271 284 280
320 335 349 4 4 14 315 253 238 225 230 232 233 239 239 239 244 244 246 246 247 252 253 250 251 265 265 266 260 257 262 263 265 268 280 272 280 280
319 327 335 358 11 17 18 326 246 240 238 238 239 240 243 243 244 246 247 249 250 250 255 254 253 260 257 261 244 265 252 254 259 274 273 263 272 275
314 320 335 339 358 6 25 24 263 264 306 254 247 243 245 247 249 250 251 254 255 253 254 255 257 257 251 252 256 251 252 261 272 261 271 273 271 271
306 313 319 338 334 3 9 17 259 261 263 263 337 262 251 251 253 253 251 251 254 259 255 262 254 232 246 244 245 241 263 268 272 257 267 275 272 276
297 303 310 317 319 326 349 7 4 258 23 263 265 355 348 287 274 266 264 261 255 249 244 237 263 267 269 261 262 264 267 264 249 254 271 271 264 267
304 296 300 305 312 297 297 342 343 338 356 262 22 264 41 267 44 343 284 264 263 259 261 261 247 262 264 264 268 268 255 266 258 257 261 263 265 267
310 300 296 293 295 301 305 294 317 329 337 343 358 359 343 265 262 264 164 267 262 261 265 266 267 265 263 268 267 263 268 257 254 255 255 255 255 256
303 316 295 293 285 285 287 292 295 287 294 316 323 331 345 326 291 236 215 248 265 268 270 272 273 271 270 267 252 255 255 252 253 250 251 251 252 254
312 315 316 303 288 285 278 277 277 278 277 280 289 286 289 290 306 291 296 277 276 273 263 249 246 249 251 247 247 251 247 247 248 251 249 249 250 252
274 266 265 284 309 297 283 277 273 276 268 271 275 269 274 271 267 260 265 257 257 258 254 251 247 244 243 246 249 250 249 251 250 248 253 255 256 256
291 296 302 294 278 281 282 282 278 272 266 269 266 265 267 263 265 260 260 266 262 253 250 248 247 247 248 245 247 249 250 250 253 254 256 259 261 261
289 289 286 281 297 281 289 291 291 290 270 267 259 264 260 258 257 262 263 262 260 253 257 256 255 253 253 255 255 253 254 256 261 260 262 264 267 270
286 289 289 273 282 288 288 284 286 273 277 277 265 264 262 258 260 255 257 258 257 258 261 262 263 263 262 263 256 258 261 261 267 270 271 268 273 273
284 285 287 287 285 280 285 278 284 284 274 272 272 271 266 263 262 258 257 258 258 261 259 259 261 264 265 266 264 263 262 267 270 267 267 268 270 271
280 282 281 283 281 289 281 282 278 281 277 274 279 281 275 269 267 263 260 259 258 258 257 256 255 258 263 261 260 263 264 265 268 269 269 270 272 274
276 277 277 275 279 283 278 278 280 279 276 277 275 279 280 275 266 264 265 261 272 272 271 260 263 266 260 261 262 263 264 264 264 266 268 271 272 273